Theta_e
350 352 355 357 357 357 356 356 355 356 355 356 355 354 355 354 354 354 354 354 353 353 353 353 352 353 353 352 352 351 351 350 350 352 352 352 352 352 352 353 353 353 354 354 354 354 354 353 353 352 352 352 352 353 351 350 350 349 349 348 348 349 349 349 348 347 347 346 348 346 345 348 347 348 347 346 346 347 346 346 344 341 342 342 344
349 354 355 356 357 357 356 355 355 355 355 355 354 354 354 354 354 354 353 353 353 352 352 352 352 352 352 351 351 350 350 351 351 352 352 352 353 353 353 354 354 354 355 355 354 354 353 353 353 353 353 353 353 351 351 350 349 349 349 348 348 349 348 348 347 347 347 347 347 347 346 346 346 347 347 346 345 346 346 346 345 342 342 343 343
352 355 356 355 358 357 356 355 354 354 355 354 354 354 354 354 354 354 354 354 354 353 352 351 351 352 351 351 351 351 352 352 351 351 352 352 353 353 354 354 354 355 355 355 355 354 354 353 353 353 353 352 351 351 351 350 349 349 349 349 348 348 348 348 347 347 345 346 348 347 346 345 345 345 347 347 346 346 346 346 345 345 343 344 344
351 354 355 356 357 356 355 355 354 354 354 354 354 353 353 353 354 354 353 353 352 352 351 351 350 351 351 350 351 352 351 352 352 352 353 353 353 354 354 355 354 356 355 355 354 354 353 353 354 353 351 351 351 351 350 350 350 349 349 348 348 348 348 347 347 347 347 347 347 345 345 342 344 346 346 346 346 346 346 346 345 345 345 345 344
351 354 355 355 355 356 355 355 354 355 354 354 353 354 353 353 353 353 353 353 353 352 353 352 350 352 351 351 351 351 351 352 352 352 353 353 354 354 355 355 355 355 355 355 354 354 354 354 354 353 353 353 352 351 350 350 350 350 349 349 348 348 348 347 347 347 347 347 346 344 342 342 342 344 346 346 346 346 346 346 345 345 345 345 344
352 354 354 355 354 355 356 355 356 355 354 353 352 353 353 352 353 353 353 353 352 352 351 352 351 350 350 351 351 351 351 352 352 353 353 354 355 355 355 356 356 356 356 355 355 355 355 354 354 353 353 353 352 351 351 350 350 350 350 349 349 348 347 347 347 347 346 346 344 343 342 343 343 343 346 346 346 345 345 346 345 345 345 344 344
352 353 354 354 354 355 356 355 354 355 354 353 353 354 354 353 352 353 353 353 352 353 352 351 352 350 350 351 351 350 352 352 352 353 354 354 355 355 355 356 356 355 356 355 355 354 355 354 353 353 352 351 351 351 350 350 350 350 350 349 348 348 347 346 346 346 345 342 340 341 342 341 342 342 346 346 346 345 344 345 345 344 343 343 343
352 353 355 354 354 355 356 355 355 354 352 354 353 354 354 353 352 353 352 352 352 352 352 352 351 352 351 351 351 351 351 352 353 354 354 354 355 355 355 356 356 355 356 355 354 354 355 353 353 352 352 352 351 352 350 348 350 350 349 349 348 347 347 347 346 346 345 340 341 341 342 342 342 342 345 344 344 344 344 343 343 342 341 342 342
351 353 354 354 354 356 355 356 355 353 353 353 353 352 352 353 353 352 353 352 352 352 352 352 351 351 351 350 351 351 352 352 353 354 354 354 354 355 355 355 355 355 355 355 355 355 353 353 352 352 352 352 352 351 351 350 349 349 350 349 348 347 346 346 346 345 342 341 341 341 342 342 342 342 344 346 345 343 341 340 341 341 341 341 340
351 353 353 354 355 356 356 355 354 353 353 354 352 352 352 352 351 351 352 352 353 352 351 352 352 352 352 352 351 351 352 352 353 353 354 354 354 354 354 354 355 355 356 355 355 355 354 353 353 353 353 353 352 351 350 349 349 349 349 349 348 347 347 347 346 345 342 342 343 343 344 344 342 342 344 345 345 345 343 344 341 340 339 336 335
351 352 352 353 354 356 355 354 355 353 353 354 352 352 353 353 352 352 352 352 353 352 352 352 352 351 350 351 351 351 351 352 352 353 353 353 353 353 353 353 354 354 355 355 355 355 354 354 354 354 353 352 352 351 350 350 349 349 349 349 348 348 347 346 344 341 342 342 341 342 343 345 342 342 345 345 344 343 341 341 338 335 333 331 330
351 351 352 353 356 356 355 354 354 353 354 353 352 352 353 354 353 352 352 353 353 352 352 352 351 351 351 351 351 351 351 352 352 352 352 352 352 352 353 353 353 353 353 354 353 353 353 353 352 352 351 351 351 350 350 349 349 349 349 349 348 347 346 345 341 341 341 342 342 342 341 341 341 342 344 344 341 337 335 335 332 330 330 330 331
350 351 351 353 354 356 355 354 354 354 354 354 353 353 354 354 352 351 351 352 352 352 352 351 351 352 351 351 351 351 351 351 351 351 351 351 351 352 352 352 352 352 352 351 351 352 352 351 351 351 351 351 351 350 350 349 349 349 349 348 348 347 346 345 341 341 341 341 340 341 340 340 340 341 342 338 335 334 333 333 333 333 332 332 332
348 350 351 352 354 356 355 354 354 354 354 354 354 353 354 353 351 351 352 352 352 352 352 352 352 351 351 351 351 351 351 351 351 351 351 351 351 351 351 351 352 351 351 351 351 351 351 351 351 351 351 351 350 349 349 349 348 348 348 348 347 347 347 345 344 342 341 341 341 340 340 338 337 338 338 336 334 334 334 333 331 333 331 331 331
348 349 351 352 353 354 356 355 354 354 354 354 353 354 353 353 352 352 352 352 352 352 352 352 352 352 351 351 350 350 350 350 351 350 350 350 350 351 350 351 351 351 350 351 350 350 350 350 350 350 350 351 350 349 349 349 348 348 348 347 347 346 345 342 342 341 341 341 341 340 338 336 337 337 336 335 334 333 333 332 332 331 331 330 329
349 349 351 352 353 354 354 355 354 355 354 354 353 354 353 353 352 353 352 352 352 352 352 352 352 351 351 351 351 350 349 350 350 350 350 350 350 350 349 350 351 351 350 350 350 349 349 349 350 350 350 350 349 348 348 349 348 348 347 347 346 346 345 343 341 340 340 340 340 340 337 336 336 335 334 334 333 331 331 330 330 330 330 331 330
348 350 350 351 352 353 353 353 353 355 354 354 354 354 353 353 352 353 352 353 352 352 352 352 351 351 351 351 351 350 350 350 350 350 349 350 350 350 349 349 350 350 350 350 350 349 349 350 350 350 350 350 349 348 348 348 348 348 347 347 346 345 344 343 340 340 340 341 339 338 336 334 335 334 334 333 332 333 331 331 331 331 330 330 330
348 350 349 350 351 352 352 352 353 352 352 353 354 353 353 352 353 352 352 353 353 352 352 351 351 351 351 351 351 350 350 350 350 350 350 350 350 349 349 349 349 349 349 350 350 350 349 349 350 350 349 349 349 348 348 348 348 348 347 346 346 345 344 343 340 340 340 340 338 339 336 336 335 335 335 334 334 333 332 331 331 330 329 329 329
348 348 349 349 350 351 351 352 352 351 351 350 350 351 353 353 352 352 352 352 352 352 352 352 351 351 351 351 351 351 350 350 350 350 350 350 350 349 349 348 349 349 349 350 349 349 349 349 349 350 349 349 349 349 349 348 347 347 347 347 346 345 344 341 339 338 338 337 337 337 336 335 333 333 333 332 331 331 332 331 330 330 329 327 327
347 347 347 349 350 349 350 351 350 349 350 350 350 350 353 352 352 352 352 352 352 353 352 352 351 350 351 351 351 350 350 349 351 349 350 350 349 348 348 348 348 348 349 349 349 349 349 350 350 349 349 349 349 349 349 348 348 347 347 347 346 344 338 339 338 338 338 338 338 337 338 337 335 333 332 332 331 331 331 330 329 329 326 327 329
345 346 347 348 349 349 349 349 349 349 350 349 349 349 351 353 352 352 352 351 352 352 352 352 350 350 350 350 350 347 347 348 348 347 350 348 348 349 348 348 347 348 348 349 349 349 349 349 349 349 349 349 349 349 349 348 348 347 347 345 343 338 338 338 339 340 338 338 338 336 337 336 335 334 331 331 330 330 329 328 330 329 327 328 328
342 344 346 348 348 348 348 349 349 349 349 349 349 349 350 352 349 349 350 350 352 352 350 350 351 348 350 348 346 347 345 344 345 348 348 348 347 348 348 348 347 347 347 348 348 348 348 349 349 349 349 349 349 347 347 348 348 347 345 343 338 338 338 338 337 337 337 337 337 336 336 335 333 332 332 331 330 329 329 329 329 327 325 327 326
340 343 344 346 347 348 348 348 348 348 349 348 349 349 349 348 348 349 349 352 350 350 348 350 348 347 347 345 346 344 342 344 345 347 347 348 347 348 349 348 347 347 347 347 347 348 348 349 349 349 348 347 344 343 344 344 345 346 343 339 337 337 337 337 336 336 336 337 335 336 334 333 332 332 332 329 329 329 328 329 329 328 326 325 326
340 341 343 346 346 347 347 348 348 348 348 347 348 348 348 348 348 348 347 348 348 349 348 348 347 347 346 343 342 342 341 342 349 350 350 346 346 347 348 348 347 347 346 345 347 348 348 348 348 347 344 341 340 341 341 340 338 337 337 337 337 336 336 336 337 337 337 337 335 334 333 332 332 333 332 330 329 328 329 330 329 326 324 325 327
340 342 343 344 345 346 346 347 348 347 347 347 347 347 346 347 346 346 346 346 346 346 346 346 346 346 345 343 341 341 340 341 344 346 344 343 341 342 344 343 342 342 344 337 338 340 338 338 339 338 336 338 339 338 338 337 337 337 337 336 336 336 336 337 336 336 335 336 336 335 334 333 333 332 331 330 329 329 329 329 328 327 327 325 326
341 339 340 343 344 346 346 346 347 347 346 346 346 346 346 345 345 345 345 346 346 345 345 344 346 347 344 343 342 340 339 340 341 341 340 340 339 339 338 338 337 339 340 336 335 334 333 333 333 334 335 337 338 338 338 338 336 337 337 336 336 336 336 335 335 334 334 335 335 334 334 332 331 331 330 330 329 328 329 330 328 326 324 325 325
338 338 340 342 344 345 346 346 345 345 345 346 346 345 344 345 345 345 345 344 345 344 344 345 346 347 345 343 341 339 339 339 340 340 339 339 337 337 335 335 336 336 336 336 334 332 331 332 332 332 332 336 338 338 337 337 337 337 337 336 336 336 334 333 333 332 332 333 333 334 332 331 330 331 330 330 329 329 330 329 328 327 325 325 324
337 337 339 341 343 344 345 345 344 344 344 345 344 344 344 344 344 345 345 344 344 343 344 344 345 346 345 343 342 340 339 339 340 340 338 337 336 335 334 334 334 335 334 334 332 331 330 329 330 328 332 337 338 338 337 337 337 337 336 336 335 334 333 332 331 331 331 332 333 332 331 331 331 330 329 329 328 327 328 328 327 327 327 326 325
335 336 338 340 342 343 344 344 343 343 343 344 342 343 343 343 343 343 342 345 343 344 344 344 343 345 345 343 342 338 339 340 341 340 338 337 336 335 334 333 333 333 333 332 332 331 330 328 328 328 329 335 338 337 337 336 337 336 336 335 334 332 331 331 330 329 330 330 330 331 332 330 330 329 330 330 328 327 328 328 327 326 326 326 326
335 336 338 339 341 343 343 343 343 343 343 343 342 341 342 342 342 342 342 343 343 343 344 343 343 344 344 343 342 339 339 340 341 341 339 337 336 335 334 333 332 332 333 331 331 331 329 327 327 326 327 334 337 338 337 336 335 335 335 333 332 331 331 330 329 328 328 329 330 332 331 330 329 330 330 330 329 327 327 327 326 325 325 325 325
336 335 337 339 341 341 342 343 343 343 343 341 341 340 342 341 342 342 341 341 342 342 342 342 342 343 344 343 341 340 339 340 341 341 339 338 336 335 334 333 332 331 332 331 330 330 329 328 327 326 326 332 337 339 337 336 335 334 334 332 331 330 329 329 328 328 328 328 329 330 329 330 330 330 330 330 329 328 327 327 327 325 325 324 324
337 335 337 340 341 341 341 342 342 343 342 341 341 340 340 341 341 341 340 340 342 341 341 342 341 342 343 342 341 339 340 340 341 341 339 338 337 336 334 333 332 331 331 330 330 329 329 328 327 326 326 332 337 338 337 335 333 333 332 330 329 328 328 328 327 327 328 327 326 328 330 329 330 329 329 330 329 328 327 327 327 327 326 326 325
339 338 338 339 340 340 341 341 342 342 341 340 341 340 340 341 340 340 340 340 342 341 340 340 341 342 342 342 340 339 339 339 339 340 340 339 338 337 336 334 333 332 331 330 329 328 328 327 326 326 325 332 336 336 337 336 333 331 331 329 329 327 327 327 327 327 326 325 325 326 328 330 329 329 328 328 328 328 327 326 326 326 326 325 324
338 339 339 338 340 341 342 342 341 341 341 341 340 339 340 340 340 340 340 340 341 340 339 339 340 341 341 341 340 339 338 338 339 340 341 339 338 337 337 335 334 333 332 330 327 327 327 326 325 325 328 331 333 334 334 333 333 331 330 328 327 327 327 326 326 326 325 324 324 325 325 326 327 328 328 328 328 328 327 326 325 325 325 325 325
330 331 336 339 340 340 341 341 341 340 341 340 340 339 339 339 339 339 339 339 339 339 339 338 339 339 340 340 340 339 338 337 338 339 340 339 338 337 337 336 335 334 332 331 328 326 327 326 326 324 328 328 332 333 334 333 332 330 329 328 326 325 326 326 325 324 323 323 324 324 324 324 324 326 327 327 327 327 327 326 324 324 324 325 325
330 330 330 334 335 337 339 340 341 339 340 340 339 339 339 338 338 340 338 338 338 337 338 338 337 337 338 338 339 339 338 337 336 338 339 339 338 337 337 337 336 334 332 330 329 325 326 326 326 325 326 326 330 331 333 332 332 330 329 327 326 326 325 325 324 323 322 323 323 323 323 323 324 324 327 323 326 328 326 326 325 324 324 324 324
331 331 332 333 333 335 337 338 339 339 340 339 339 339 338 338 338 338 337 336 336 336 337 337 337 336 336 336 337 338 338 337 336 337 337 337 337 337 337 336 336 334 331 330 329 326 325 326 325 327 328 326 329 330 332 332 331 331 329 326 325 326 324 324 324 323 322 322 322 322 322 322 324 329 323 322 323 326 327 326 325 323 323 323 323
331 332 333 334 334 335 336 336 338 340 340 339 338 338 338 337 337 337 338 336 335 335 335 336 336 336 336 335 335 336 337 336 336 335 336 337 337 336 335 334 334 333 331 330 329 327 325 326 325 326 328 328 328 329 330 331 331 330 328 325 324 324 324 324 324 325 322 321 322 321 322 322 326 322 320 321 321 324 325 327 326 324 322 322 323
330 331 333 335 335 336 337 338 338 340 339 339 338 338 337 337 337 336 336 336 335 334 335 335 336 336 335 335 335 335 337 336 335 335 334 334 335 335 333 333 333 332 331 329 328 327 325 326 326 326 329 329 329 330 330 331 329 329 327 325 324 323 323 324 325 324 321 321 321 321 321 322 323 319 319 319 320 321 322 322 321 321 326 322 321
330 332 333 335 334 334 336 338 339 340 339 338 338 337 337 336 334 335 334 334 334 334 334 335 335 336 336 335 335 334 335 336 335 335 334 334 333 333 333 332 332 332 330 328 327 326 325 325 326 327 327 329 329 329 330 328 326 326 325 324 324 323 322 324 323 322 322 321 322 322 320 320 321 319 318 318 319 319 320 319 324 320 322 323 321
329 330 331 332 333 335 336 336 338 339 337 336 336 335 334 334 334 333 332 333 334 334 334 334 335 335 336 336 335 334 334 335 335 334 333 335 333 332 332 331 332 331 330 329 328 327 327 327 327 329 326 325 324 326 326 326 323 317 318 320 320 322 324 323 322 321 321 321 321 322 320 321 319 318 318 317 317 317 317 318 320 318 320 319 322
327 329 329 330 331 331 331 334 336 337 337 336 336 336 335 335 334 334 334 334 334 333 332 334 335 335 336 337 336 335 334 334 335 334 334 333 333 331 331 330 330 331 331 331 329 331 328 327 328 326 327 325 323 324 322 323 318 318 317 313 314 316 322 322 321 321 321 320 320 321 319 320 319 318 317 316 316 315 315 315 317 317 317 318 318
327 328 330 330 330 329 329 330 333 335 337 336 336 335 336 337 336 336 335 334 336 336 335 335 337 336 336 337 337 336 334 334 335 334 333 333 333 332 331 330 331 332 331 329 329 328 328 327 327 326 323 322 323 322 321 325 315 315 315 314 308 311 314 313 317 319 320 320 320 320 319 319 319 318 316 315 315 314 314 314 314 315 316 316 317
327 327 329 330 330 330 330 330 331 333 335 336 336 336 337 337 338 337 337 336 335 337 336 336 336 337 336 337 338 337 335 334 334 334 334 333 333 332 332 330 331 332 331 329 328 328 327 327 327 327 325 321 319 320 322 320 317 316 312 311 308 309 306 308 310 313 318 320 319 319 319 318 319 317 315 315 314 314 314 313 313 314 314 315 315
327 327 328 328 330 330 332 333 333 333 334 336 336 336 337 337 338 338 338 337 337 336 335 334 335 336 337 337 337 338 336 335 335 334 334 333 333 333 332 331 331 331 331 329 329 328 328 328 328 327 325 322 319 319 321 321 319 322 316 311 309 309 309 311 309 311 315 316 317 318 319 319 317 317 316 314 314 313 313 312 313 313 313 314 314
328 327 327 328 330 331 329 332 334 333 334 335 336 336 334 334 334 331 327 331 332 332 332 332 333 334 335 338 339 339 337 336 335 335 335 334 332 332 332 331 331 331 331 330 330 329 328 328 328 327 326 325 322 319 319 322 321 321 322 319 318 315 311 312 309 307 314 315 315 316 317 318 318 317 316 314 313 312 313 312 312 313 312 312 314
329 329 328 329 330 331 331 333 333 333 334 335 337 337 334 334 334 333 331 332 332 333 335 335 335 336 337 337 338 339 338 336 336 335 335 335 333 332 332 331 332 332 332 330 330 330 329 328 328 327 327 325 324 320 319 319 321 321 321 322 324 320 316 311 310 306 307 311 311 312 314 315 317 316 315 314 314 312 312 312 312 311 311 311 312
329 330 329 329 328 329 330 332 333 334 334 335 337 338 335 333 332 332 333 334 334 334 335 336 337 337 337 337 338 338 338 337 336 335 335 335 334 332 332 332 332 332 332 330 331 331 330 330 329 328 327 326 324 323 321 320 319 319 321 319 321 317 316 313 314 315 311 308 308 311 311 313 314 315 315 315 314 313 312 312 311 310 310 309 311
328 328 329 330 330 329 329 330 331 334 334 336 337 338 337 333 332 332 332 334 336 335 336 336 335 337 336 337 337 338 338 337 337 335 335 334 335 333 332 331 332 332 333 330 331 331 330 329 327 326 325 325 325 325 323 321 322 320 319 318 317 316 316 315 316 314 312 311 308 307 309 310 311 312 313 314 314 314 313 312 311 312 311 310 309
326 329 329 330 331 330 329 329 329 331 334 336 337 337 337 335 331 332 333 334 336 336 336 335 336 336 336 336 337 337 337 337 336 336 335 334 334 334 332 331 332 332 333 331 330 331 331 329 328 327 326 324 325 325 324 323 323 322 322 320 319 316 317 316 314 313 311 314 314 308 309 308 308 311 312 312 312 312 312 312 312 313 311 310 309
324 326 329 329 330 331 330 329 330 332 334 335 335 335 337 336 334 334 335 335 335 335 334 334 335 335 335 335 336 336 337 336 336 335 335 334 334 334 332 331 332 333 333 331 330 331 331 330 329 328 326 325 324 324 324 324 324 322 321 322 322 320 319 318 316 314 315 312 311 310 309 309 309 309 312 311 312 311 311 311 311 311 312 310 309
Wind_Speed
9 11 9 16 18 19 18 18 19 18 17 16 17 16 16 16 17 17 18 18 18 18 18 18 19 19 19 19 19 19 19 19 18 18 18 17 18 18 17 16 15 16 17 18 18 18 17 17 16 16 16 16 17 17 17 16 16 16 16 17 17 17 17 17 17 17 17 16 15 16 14 16 16 16 16 17 17 16 15 15 13 9 7 11 15
16 13 10 11 18 19 19 18 19 19 18 16 16 17 17 17 16 17 17 18 18 18 18 18 18 19 19 19 19 20 19 18 18 18 18 18 18 18 17 16 15 15 17 17 18 17 16 16 16 16 16 16 16 16 15 16 16 15 16 16 16 17 16 16 17 16 16 15 16 16 15 16 16 16 16 17 17 17 15 15 14 8 8 15 16
14 14 12 13 18 20 19 19 19 19 17 17 16 16 17 18 17 17 17 17 18 18 18 18 18 19 19 19 19 19 19 18 19 18 19 19 18 18 16 15 15 15 16 18 18 17 16 15 16 16 16 16 16 16 15 15 15 15 15 15 15 16 16 16 16 15 16 15 15 15 14 16 16 16 17 17 17 17 16 16 15 13 11 18 16
17 13 12 14 19 19 19 19 20 20 19 19 18 17 16 17 18 17 17 17 17 18 18 19 19 19 19 19 19 19 19 19 19 19 18 18 17 17 16 15 14 15 16 17 18 17 15 15 15 16 16 15 15 14 14 14 14 14 14 14 15 15 15 15 16 15 15 15 13 10 5 6 10 16 17 17 17 17 16 17 17 16 17 17 18
16 13 12 12 14 18 20 20 20 20 20 19 19 18 17 16 17 17 17 18 18 17 18 18 19 19 19 19 19 20 20 19 19 18 18 17 16 17 15 15 14 14 15 16 17 17 15 14 14 14 14 14 14 13 13 13 13 14 14 14 14 15 15 15 15 15 15 14 12 8 6 8 7 15 16 17 17 16 16 16 16 16 16 17 17
15 13 12 11 12 16 20 19 20 21 20 19 19 19 18 17 17 17 17 17 17 18 17 18 18 19 20 20 19 19 19 19 18 18 17 16 15 16 15 15 14 14 14 15 15 16 15 14 13 13 13 13 13 12 12 12 13 13 14 14 15 15 15 14 14 14 13 13 10 5 5 7 7 9 17 17 17 17 16 17 17 17 16 17 17
17 13 12 12 11 14 20 19 21 22 21 20 19 18 17 18 17 17 17 17 17 17 17 18 17 18 18 19 19 19 19 18 18 18 17 16 15 15 16 14 14 14 14 14 15 15 14 13 13 12 12 12 12 11 12 12 13 14 14 15 15 15 15 15 14 13 12 8 5 5 5 8 7 7 16 17 17 16 17 17 18 17 17 17 18
12 11 12 11 10 16 21 20 21 21 22 20 20 19 18 18 17 16 17 17 16 16 18 18 18 17 18 19 19 19 18 18 18 18 17 16 14 14 14 14 14 14 14 13 14 14 13 12 12 12 11 11 11 11 11 12 13 14 15 16 16 16 15 15 15 14 12 6 6 5 5 5 7 7 14 16 16 16 16 16 16 16 16 18 16
12 11 12 10 10 20 20 19 20 22 21 21 20 20 18 18 17 17 16 16 16 17 17 17 18 18 18 18 18 18 18 17 17 17 16 15 14 13 13 13 13 13 13 13 13 14 12 11 11 11 11 11 11 11 11 12 13 14 15 15 16 16 16 15 14 12 7 5 6 5 6 8 8 8 14 16 16 15 15 14 14 17 18 17 17
13 11 10 10 11 20 19 19 19 21 21 21 20 19 18 17 17 17 16 16 16 16 17 17 17 17 16 17 18 18 18 17 17 16 15 15 14 13 13 12 13 13 12 12 14 13 12 11 11 11 11 11 11 10 10 11 13 15 15 15 16 16 15 14 13 9 6 6 5 7 8 9 7 7 15 17 17 18 17 18 15 15 15 17 18
13 12 10 11 14 18 17 18 19 20 20 20 19 19 17 17 16 16 16 16 16 16 16 16 16 16 16 17 17 18 18 17 16 16 16 15 14 13 12 11 11 12 11 11 13 13 12 11 11 11 12 11 10 10 10 10 12 14 15 15 16 16 14 13 10 6 7 8 8 8 10 12 8 8 15 17 17 17 18 18 17 15 15 15 15
12 12 11 11 17 19 17 18 19 19 20 20 19 18 17 16 17 17 17 15 15 15 15 15 15 15 16 16 17 17 17 17 17 16 16 15 14 13 12 11 11 12 11 11 12 12 11 11 11 12 12 11 10 10 10 11 12 14 14 15 15 15 14 13 7 7 8 9 9 8 8 9 8 11 18 18 16 14 15 16 16 16 15 16 16
11 10 10 12 15 21 20 19 19 20 20 20 20 18 17 17 18 16 17 15 14 14 14 14 14 14 15 16 16 16 16 16 15 16 16 15 14 13 11 11 11 11 11 11 12 12 11 12 12 12 12 11 10 10 11 13 14 14 15 15 16 15 14 13 7 8 8 8 8 9 10 8 9 15 16 16 15 15 15 16 16 17 17 17 16
11 9 9 10 11 19 21 19 19 19 18 19 19 18 17 16 17 16 16 15 15 14 13 13 14 14 14 15 15 16 16 16 15 15 15 15 14 13 11 10 11 11 11 11 12 12 12 12 12 13 12 11 10 11 12 14 15 15 15 16 16 16 16 12 11 9 10 9 8 9 8 7 9 15 17 17 16 15 15 16 16 16 16 17 16
12 13 10 8 11 13 21 19 18 18 17 16 17 16 17 16 15 15 15 15 15 14 13 14 14 14 15 15 15 16 16 16 16 15 15 15 14 13 11 11 11 11 10 10 12 12 12 12 13 13 12 10 9 11 13 13 15 16 16 15 16 15 15 8 8 8 8 8 7 8 8 7 14 14 15 16 16 15 15 16 16 17 16 15 15
9 12 12 9 8 12 12 17 20 19 17 17 16 16 16 16 15 15 15 15 14 14 14 14 14 14 14 14 16 15 16 16 16 15 15 15 14 13 11 11 11 11 9 10 12 12 12 13 13 13 11 10 10 12 13 14 14 15 15 15 15 15 16 11 7 8 7 7 7 7 7 9 15 14 14 15 16 14 13 15 16 15 14 16 16
10 10 12 13 9 11 11 12 15 22 19 17 16 16 16 15 15 15 14 14 15 15 14 14 13 14 14 14 15 15 16 16 16 15 15 15 14 13 12 11 11 11 9 9 12 12 12 14 13 12 11 10 10 12 13 14 15 15 15 16 16 17 15 12 8 7 6 8 6 6 6 7 14 14 14 15 15 16 14 15 16 15 14 15 15
9 12 12 14 13 9 9 10 13 13 12 16 17 19 17 17 15 14 14 13 14 15 14 13 13 13 14 14 16 16 16 15 15 14 15 15 14 13 12 11 11 11 9 9 11 12 13 14 13 11 11 11 11 12 14 14 15 15 15 15 16 17 15 13 7 6 8 8 6 6 6 12 15 14 14 14 15 16 15 15 15 15 14 14 15
9 9 11 14 13 14 11 10 11 10 11 9 9 14 19 18 17 16 15 15 15 14 15 14 13 13 15 15 16 16 16 16 15 14 15 15 14 13 12 11 11 11 10 9 11 12 12 13 12 11 12 12 12 12 12 13 14 15 16 16 16 16 15 8 6 6 6 4 5 6 7 14 14 13 13 13 14 15 15 14 14 15 15 14 15
8 9 9 10 12 13 11 9 9 10 10 9 9 10 16 19 17 17 16 15 16 16 15 14 13 14 15 16 16 13 14 12 16 13 16 15 14 11 12 11 11 12 10 10 11 11 12 13 12 11 11 11 12 12 13 13 13 14 16 16 16 15 8 5 6 6 5 5 4 6 12 15 15 15 13 13 14 14 15 14 15 16 14 13 16
6 7 9 9 10 12 12 10 10 11 10 10 9 9 13 17 15 17 17 16 15 16 15 15 14 13 13 13 13 8 6 7 10 7 14 9 12 13 11 11 11 12 11 10 10 11 12 12 12 12 12 12 13 14 14 14 14 15 15 16 15 8 6 5 5 5 4 5 5 7 14 14 14 14 14 13 13 14 14 14 16 16 13 15 14
8 8 9 11 10 10 12 10 10 12 11 9 7 8 9 14 10 10 10 12 13 14 12 8 9 6 12 10 6 6 5 5 6 9 7 9 10 13 11 11 11 11 11 10 10 10 12 12 12 12 13 13 14 7 9 12 15 14 14 14 8 6 6 6 5 5 5 4 5 9 13 13 13 13 14 13 13 14 14 14 15 15 12 14 14
11 10 9 12 10 10 11 11 11 11 11 9 7 7 9 8 9 9 8 10 10 10 7 8 6 7 5 5 5 5 5 5 5 6 6 11 10 13 11 11 11 12 11 11 10 11 12 12 13 13 13 13 7 6 6 6 8 15 13 9 7 6 6 5 5 4 4 4 5 12 12 13 13 13 14 12 13 14 13 14 14 14 12 13 13
13 11 11 10 12 10 12 11 11 12 11 9 7 7 7 7 7 7 6 7 7 7 6 6 6 7 6 5 5 5 5 5 10 14 12 7 8 12 12 11 11 12 12 8 10 11 13 13 12 13 8 5 6 6 6 6 6 6 6 7 6 6 5 5 4 4 4 6 6 13 12 12 12 14 14 14 13 12 14 15 15 14 12 12 13
9 8 8 10 13 12 11 11 11 11 11 9 9 8 7 7 7 7 6 6 6 6 6 6 6 7 7 6 6 5 5 5 5 6 5 6 5 5 6 5 5 5 8 6 5 6 6 6 6 6 5 5 6 5 6 7 6 7 7 7 7 7 6 4 4 5 4 4 6 13 13 12 13 13 13 12 11 12 12 14 14 14 13 11 13
10 10 11 9 12 13 13 11 12 12 11 9 9 9 9 8 8 7 7 6 6 6 6 6 6 7 7 7 7 6 6 5 5 5 5 5 5 5 5 5 5 5 6 5 5 6 5 5 5 6 5 5 6 6 6 7 7 7 7 6 6 6 5 4 4 4 4 4 6 12 11 11 12 12 12 12 12 12 13 14 13 12 12 12 13
11 11 9 10 12 14 13 11 11 11 12 9 9 8 7 8 7 7 8 7 6 6 7 6 6 7 8 7 7 7 6 5 5 5 6 5 5 5 5 5 5 5 5 6 6 6 5 5 5 5 5 6 6 6 7 6 7 9 7 8 7 6 4 4 4 4 4 4 6 12 11 11 11 12 13 12 11 12 12 12 13 12 13 12 11
12 11 10 9 11 15 15 14 12 12 11 11 10 9 8 9 8 9 9 8 8 7 7 6 6 6 7 7 6 7 7 6 6 6 5 5 5 5 5 5 5 5 4 5 6 5 5 5 5 5 6 6 6 7 6 7 7 8 9 8 7 7 4 4 4 4 4 4 5 10 11 11 10 11 11 12 9 9 11 14 12 12 13 12 12
12 13 12 10 11 13 14 15 13 13 11 11 11 9 9 9 9 9 9 9 8 7 7 6 6 6 7 8 6 6 6 6 6 6 5 6 5 5 5 5 5 5 5 5 5 6 6 5 5 5 5 6 6 6 6 7 6 7 8 9 7 6 4 4 4 4 4 4 4 8 12 12 10 9 12 12 10 8 12 13 11 11 12 11 12
11 10 11 10 10 12 16 16 15 14 12 11 10 9 10 11 11 11 9 9 8 8 7 7 6 6 6 8 7 6 7 7 7 6 5 6 5 5 5 5 5 5 5 5 5 6 6 5 5 5 6 6 7 6 6 6 6 6 7 8 7 6 5 5 4 4 4 4 4 5 11 11 10 10 11 12 11 9 10 11 11 10 10 10 11
7 9 10 10 9 11 14 16 14 13 12 12 11 10 10 10 11 10 9 9 9 8 8 7 6 6 6 7 8 7 6 7 7 7 6 6 5 5 6 5 5 5 5 5 5 5 5 6 6 6 6 6 6 6 6 6 6 7 8 8 7 5 5 4 4 4 4 4 3 4 7 11 9 8 10 10 11 11 10 11 12 11 11 10 10
11 10 9 8 9 11 11 14 14 13 13 13 11 11 10 10 9 9 9 9 9 8 8 8 7 6 7 6 7 7 7 7 8 7 6 6 6 5 5 6 5 5 5 5 5 5 5 5 6 5 6 6 6 6 6 6 6 6 7 8 6 5 5 4 4 4 4 3 3 4 4 6 10 9 8 8 10 10 9 9 11 11 11 11 10
8 9 9 9 10 10 10 12 13 13 12 12 11 10 9 9 9 9 8 8 9 8 8 8 8 7 8 8 7 8 7 8 7 7 7 6 6 6 5 5 6 6 5 5 6 5 5 5 5 5 5 5 8 7 6 5 6 6 7 6 6 5 4 4 4 4 3 3 3 3 3 4 5 9 9 7 9 10 9 8 9 10 9 9 9
4 6 11 11 9 7 7 8 12 14 14 11 9 8 9 8 7 7 7 8 8 8 8 8 8 7 8 9 8 9 7 7 7 8 7 7 6 7 7 6 5 6 6 5 5 5 5 6 5 6 5 6 9 7 7 7 5 5 6 6 5 4 4 5 4 3 3 2 3 3 4 4 4 4 5 8 7 8 9 8 6 7 8 8 8
7 10 2 6 8 8 8 8 11 13 13 11 11 10 7 7 7 7 7 7 7 8 7 7 8 8 7 8 9 9 8 8 8 8 7 7 8 8 7 7 6 7 6 5 6 5 5 6 5 6 5 6 7 7 7 7 7 6 6 6 5 4 4 5 4 3 2 2 3 3 4 4 4 3 3 4 5 6 8 8 7 4 5 8 8
10 3 9 7 9 6 7 9 11 13 14 12 10 9 8 7 6 6 5 5 5 6 6 7 7 7 7 8 9 9 8 8 8 8 8 8 8 8 8 6 7 6 6 6 6 6 6 5 5 6 7 6 7 7 6 7 7 7 6 6 4 4 4 4 3 3 2 2 2 3 3 3 3 3 3 3 3 4 7 8 7 5 3 3 6
6 13 12 9 12 16 13 13 13 12 12 13 11 9 8 8 7 6 5 5 5 5 5 6 7 7 8 8 9 9 8 9 8 8 8 8 7 7 6 7 6 6 7 6 6 6 6 6 5 5 7 6 8 9 7 7 7 7 6 6 4 4 4 4 3 3 2 3 3 2 3 3 3 3 3 3 3 2 6 8 7 6 5 3 1
16 13 11 9 11 10 12 13 12 11 10 10 9 8 7 7 6 5 5 5 5 4 5 6 7 7 7 8 9 9 8 9 9 8 8 8 8 8 6 6 6 6 6 7 7 6 6 7 6 5 5 6 7 8 9 7 7 6 6 7 5 4 4 4 3 3 2 3 3 3 3 3 2 2 2 3 3 3 3 5 7 7 6 4 2
12 12 12 9 4 3 7 13 14 11 10 10 9 7 7 6 6 6 6 5 5 5 5 6 7 7 8 9 9 9 9 9 9 9 8 8 8 7 6 7 6 6 6 6 7 7 6 6 7 6 4 5 6 7 9 7 5 5 6 6 4 4 3 3 2 2 2 2 2 2 2 2 2 2 2 2 2 3 3 2 3 2 3 6 3
8 8 9 9 12 12 10 9 11 10 9 9 9 8 7 7 8 7 7 7 7 7 7 7 7 8 8 9 9 8 9 9 9 9 8 8 8 7 7 6 6 6 6 7 7 7 8 7 7 8 7 5 4 6 8 7 6 6 6 5 3 3 4 3 3 2 2 2 2 2 2 2 2 2 2 2 2 3 3 2 2 2 2 1 5
9 12 12 11 10 8 9 11 8 10 10 10 11 11 9 7 7 8 8 8 8 8 7 8 8 9 9 9 9 8 8 9 9 9 9 8 8 7 7 7 7 7 7 7 7 8 8 8 7 7 9 7 4 6 7 8 9 5 5 4 4 2 2 3 3 3 3 3 2 2 2 2 2 3 2 2 3 3 2 2 1 1 2 1 1
7 12 14 15 12 12 4 4 8 9 11 11 11 12 11 9 8 7 6 5 6 8 9 9 9 8 9 9 9 9 9 9 9 9 9 9 8 7 7 8 7 7 7 7 7 8 8 8 7 6 4 8 6 9 9 10 3 6 7 3 3 3 2 3 4 4 4 3 3 3 3 4 4 3 2 2 2 2 2 2 1 2 2 1 1
9 11 12 13 13 12 13 8 6 8 10 12 11 10 9 9 9 7 7 6 6 6 6 6 7 9 10 10 9 9 10 9 10 10 9 9 9 8 7 7 8 7 7 6 7 8 8 9 10 9 7 4 4 6 10 6 7 5 5 6 1 2 2 1 2 4 4 4 3 4 4 4 4 3 2 2 3 3 2 2 3 3 3 3 2
8 6 7 12 10 10 13 15 12 10 9 9 10 8 10 10 8 7 6 7 7 6 7 7 9 10 11 11 10 10 10 10 10 10 9 9 9 9 7 7 8 7 8 7 7 8 8 8 9 9 10 8 5 5 4 1 7 12 5 2 4 4 1 6 5 3 3 5 5 5 4 4 4 3 2 4 4 3 3 2 4 4 3 3 2
10 10 12 13 11 15 13 16 14 12 9 9 9 10 10 9 8 7 4 5 5 6 7 8 11 11 10 10 12 11 11 10 10 11 10 10 9 9 8 7 7 7 7 7 7 8 9 9 10 9 10 9 7 5 6 2 6 1 8 6 3 2 5 3 4 4 2 3 5 5 5 5 4 4 4 4 3 3 3 3 4 4 4 4 3
12 12 12 12 12 13 14 15 15 14 11 9 9 7 8 10 9 7 4 7 9 10 11 15 15 15 15 11 10 11 11 10 10 10 10 10 10 10 9 8 8 7 7 7 7 8 9 9 10 10 9 9 11 9 8 3 5 3 2 2 4 5 5 3 5 4 1 4 2 4 5 5 4 4 4 4 4 4 3 4 4 5 5 4 4
12 11 12 13 12 13 16 15 14 13 12 10 13 10 8 7 10 11 12 11 11 12 13 12 10 10 9 11 11 9 10 11 10 10 10 10 10 10 10 9 8 8 7 7 7 9 9 9 8 8 9 8 9 11 11 8 3 5 3 2 3 1 6 7 4 3 1 2 3 3 5 5 5 5 5 6 5 5 5 4 5 5 5 4 4
12 11 12 13 13 13 12 13 13 14 14 14 15 14 13 12 10 9 10 11 13 14 10 10 9 8 10 10 9 10 10 10 10 10 10 11 10 10 10 9 9 8 8 8 8 7 8 7 9 10 8 9 11 11 10 9 11 7 5 3 2 4 3 3 6 6 4 3 3 2 2 4 5 6 6 6 6 6 7 5 5 5 5 5 4
6 9 12 13 14 14 14 12 10 10 14 17 16 14 13 14 14 13 13 13 13 12 7 7 9 10 11 9 9 9 9 10 11 11 11 11 10 10 10 10 9 9 8 7 7 8 10 10 9 8 9 8 8 8 10 10 8 7 6 2 3 4 3 4 4 4 4 3 3 4 4 1 2 5 6 5 5 5 5 6 5 5 5 5 5
7 9 11 10 10 11 12 12 13 11 13 17 16 15 14 13 13 14 17 15 13 11 9 10 10 11 12 12 10 9 9 9 10 11 11 11 11 10 10 11 10 9 8 8 8 9 9 10 12 11 9 10 7 8 10 9 9 7 8 7 6 3 3 3 3 4 3 2 4 4 5 6 5 4 5 7 7 6 5 5 5 5 5 5 5
6 8 9 10 11 11 12 14 15 12 11 15 16 16 14 15 15 17 20 19 17 14 12 11 10 10 11 13 12 11 9 10 9 9 10 10 10 10 10 10 10 9 9 9 9 9 9 9 9 10 11 11 9 8 6 7 8 8 7 7 9 8 8 7 6 4 5 3 2 4 3 5 5 4 4 5 5 5 5 5 6 6 6 5 5
Wind_Direction
171 158 166 156 145 142 146 144 140 136 133 129 127 123 118 115 113 112 110 109 110 110 111 112 113 115 117 121 123 124 128 131 129 126 123 121 119 118 119 120 122 121 122 119 115 112 109 108 108 108 105 101 98 96 89 84 82 82 81 79 79 80 80 81 82 85 85 81 80 84 82 86 87 88 86 83 80 79 76 73 68 63 64 74 75
163 155 161 158 146 143 145 147 141 137 134 131 130 126 122 118 116 115 113 112 113 114 115 116 118 119 121 124 125 128 130 130 128 125 124 122 120 120 120 122 122 122 121 116 113 110 110 110 109 107 104 102 99 96 91 89 86 84 83 82 80 80 81 83 85 86 84 84 84 85 85 86 89 90 88 84 82 80 79 78 74 69 72 72 74
141 151 155 158 148 144 146 146 142 137 134 132 131 129 126 124 122 119 118 116 115 116 117 120 122 124 126 127 129 130 131 130 128 127 124 121 121 121 121 121 121 121 120 117 115 113 112 111 109 107 106 105 103 101 99 94 90 87 86 84 81 82 83 83 85 86 90 89 78 76 76 85 88 90 89 88 86 83 82 80 78 75 75 74 71
143 150 152 155 148 146 147 146 144 141 138 137 136 133 129 128 126 124 121 121 121 121 122 124 126 129 130 130 130 131 132 130 128 127 123 121 121 121 121 120 122 121 120 117 115 114 112 112 111 110 110 107 104 102 99 97 94 93 91 89 86 84 84 84 83 82 81 79 77 73 63 64 82 89 90 88 86 84 83 81 80 78 78 77 74
146 147 153 153 148 148 149 148 146 142 142 141 139 136 133 131 129 127 126 125 125 124 125 127 130 131 132 131 132 133 133 130 128 125 122 121 121 122 122 122 121 120 117 115 114 113 113 112 110 109 109 106 104 102 100 98 97 98 96 93 91 89 87 85 83 82 82 77 73 70 65 69 71 87 89 89 86 83 81 81 79 78 79 77 74
148 147 149 149 151 149 149 149 145 143 144 143 140 137 135 135 133 131 130 129 129 127 128 129 131 133 134 134 134 134 131 129 127 123 121 121 122 123 122 120 119 117 116 114 112 112 112 112 109 108 105 103 103 102 102 103 101 100 100 98 95 91 88 83 78 73 70 68 64 54 61 78 79 79 84 82 81 79 77 76 74 71 68 68 70
146 149 150 152 153 150 149 150 148 146 145 144 142 139 137 137 137 135 135 133 132 132 131 132 132 134 135 136 136 133 130 129 127 125 123 122 122 122 121 118 117 115 114 113 112 111 112 113 111 107 104 103 103 103 103 103 105 104 103 102 97 93 89 86 80 74 68 63 57 54 58 79 77 82 85 84 80 80 77 73 71 69 66 68 66
146 147 146 149 153 152 150 151 148 147 147 146 145 142 140 140 141 140 138 137 136 134 134 134 134 134 136 136 135 132 131 130 128 126 123 121 119 119 117 115 112 113 113 113 112 112 114 116 113 112 109 105 104 102 101 103 107 107 106 105 100 96 92 89 84 78 70 58 52 52 58 63 78 81 82 79 74 71 71 71 68 67 66 65 64
145 144 144 146 153 151 151 149 148 149 149 147 147 146 145 144 143 142 140 140 138 138 137 136 136 136 137 137 135 133 132 131 128 124 121 119 116 114 113 112 110 108 109 110 110 112 115 116 116 116 114 109 105 104 102 105 108 111 109 105 101 97 95 89 82 76 68 57 58 55 64 76 76 75 81 80 81 82 79 71 67 68 71 70 67
146 146 147 146 151 153 150 148 148 149 150 148 149 149 149 148 147 145 144 142 142 141 140 139 136 136 136 137 136 135 134 131 128 124 120 116 113 110 108 109 110 110 110 110 109 111 116 117 119 119 114 110 107 103 103 105 108 110 108 104 100 98 94 89 82 75 70 69 57 77 80 75 73 72 77 76 74 71 71 76 77 73 70 68 69
148 147 148 146 151 150 150 150 148 151 150 150 151 151 151 149 148 148 147 146 144 144 143 140 139 137 137 136 136 136 136 132 128 125 123 118 114 111 109 106 105 105 105 106 106 110 115 117 118 117 115 113 109 106 103 102 104 106 105 102 100 97 91 86 78 64 67 69 66 66 74 69 70 71 75 75 76 76 74 73 75 73 72 71 73
151 149 152 151 147 148 152 153 151 152 152 151 151 153 152 150 151 152 151 148 147 147 146 143 142 140 139 137 138 138 137 135 131 128 125 121 119 117 114 105 100 99 101 100 101 106 110 113 115 116 117 118 115 109 105 105 105 105 104 102 101 97 92 85 76 70 66 68 72 70 68 67 66 72 74 77 74 70 73 75 74 77 79 80 80
152 150 152 156 152 153 156 157 155 154 153 153 152 154 154 154 155 155 154 151 149 149 147 146 143 142 141 139 139 140 140 136 133 130 128 126 123 118 108 102 97 97 101 102 102 105 109 113 116 118 121 121 116 110 107 108 109 107 105 103 101 98 93 87 81 78 74 74 75 72 71 68 70 74 76 77 76 79 83 85 83 81 81 83 82
151 152 159 155 149 153 156 156 155 153 154 155 153 155 154 156 158 157 155 152 151 152 149 148 145 145 144 141 141 143 143 140 136 134 132 129 126 119 113 106 101 99 101 103 104 105 110 116 118 120 122 121 117 112 111 111 110 110 107 104 103 100 96 89 85 85 86 83 81 78 72 73 74 77 79 82 82 84 85 82 81 82 83 82 84
157 155 155 159 155 150 154 156 154 153 153 153 152 155 153 155 158 158 156 154 153 153 154 153 151 149 147 144 142 145 146 144 141 138 135 132 127 121 115 109 103 101 101 102 103 106 111 116 118 121 123 121 118 117 115 112 112 111 108 105 103 99 97 94 91 89 88 83 79 77 77 77 80 81 85 87 86 80 79 81 79 80 83 87 85
163 152 151 145 159 149 153 158 156 155 153 153 153 154 154 157 159 159 158 156 153 153 157 158 156 154 150 148 145 147 149 147 145 142 138 135 128 123 119 112 106 104 104 104 104 107 113 117 118 120 122 121 121 121 119 116 114 112 108 105 102 100 101 101 94 93 91 89 85 86 87 89 88 87 89 88 87 88 90 86 88 90 91 86 80
158 156 156 148 165 153 157 160 157 156 155 154 155 154 155 157 159 159 159 158 156 156 158 160 159 158 154 153 149 149 151 150 149 147 142 137 132 127 122 115 110 107 108 104 105 110 116 118 116 118 121 123 122 121 122 120 116 112 108 107 105 104 105 104 102 99 97 96 92 92 95 96 92 91 92 93 93 93 87 89 87 82 77 84 86
166 166 163 153 158 154 156 160 157 155 155 157 158 158 158 159 158 159 161 159 158 158 158 160 160 162 157 158 153 151 152 153 152 149 145 140 136 130 125 120 113 111 111 108 107 112 117 116 115 119 123 127 127 124 122 121 117 112 111 112 110 110 110 107 102 100 99 96 97 98 100 98 99 99 100 99 96 94 94 90 93 89 83 81 81
165 174 169 159 166 153 157 159 157 155 154 154 158 162 161 160 159 162 166 164 161 162 159 159 161 164 161 160 157 154 154 155 154 152 148 143 139 132 129 123 116 113 114 111 111 114 113 110 112 117 124 126 125 120 121 121 120 118 115 112 110 110 108 100 98 98 89 86 101 106 104 103 100 99 99 101 98 95 93 91 87 86 85 87 88
169 176 177 167 162 151 153 158 156 157 157 155 159 162 163 161 162 164 168 168 169 166 163 160 161 166 165 162 160 158 157 157 156 154 152 147 142 137 133 125 120 117 117 115 116 116 115 115 115 118 120 119 116 117 119 121 121 118 115 108 105 104 103 98 97 92 93 95 94 105 111 108 105 102 100 100 99 98 97 95 88 88 88 88 84
174 183 172 170 163 153 154 156 158 159 157 156 161 163 167 163 165 165 170 172 172 172 166 163 164 170 170 165 161 155 149 155 156 154 155 147 143 144 136 130 123 120 118 117 118 117 117 117 117 120 121 117 116 116 120 121 119 116 108 105 106 103 103 99 92 96 97 101 103 111 113 111 108 106 103 99 99 97 99 98 94 90 90 88 87
176 179 188 169 161 161 158 158 157 161 157 159 163 164 169 166 164 168 170 172 176 175 170 166 162 167 170 168 147 147 143 140 144 158 142 150 148 149 141 133 126 121 118 117 119 116 117 120 118 120 120 118 117 115 121 120 118 110 108 107 104 109 106 98 101 108 107 110 107 113 111 110 109 107 103 101 101 101 104 98 94 93 89 88 88
181 185 186 174 163 164 160 160 160 161 158 162 166 166 168 158 165 167 171 171 177 174 166 167 158 164 162 151 143 138 145 144 148 144 145 151 152 152 147 138 130 125 120 116 119 117 120 122 122 123 120 116 111 107 111 113 119 116 110 107 110 108 107 98 101 104 105 108 107 113 112 113 114 110 105 107 104 106 105 99 96 97 91 90 90
183 185 181 177 161 165 165 161 162 163 163 165 166 167 165 156 164 166 169 168 175 170 169 164 163 163 153 139 140 143 145 149 162 155 158 151 157 156 153 144 139 131 125 118 120 123 124 125 126 126 109 108 116 112 112 110 108 109 109 110 109 111 100 107 103 99 104 113 119 118 114 117 114 110 113 110 105 106 103 99 98 94 99 97 95
169 170 192 180 165 163 161 163 162 163 168 166 165 168 159 156 161 164 166 166 174 166 171 167 168 163 151 146 146 146 151 163 152 155 133 148 152 144 149 137 131 127 117 109 100 100 93 94 100 110 114 123 119 117 117 117 120 117 115 114 113 113 108 98 99 95 95 106 122 123 121 119 115 114 110 108 112 113 107 100 100 99 93 91 90
158 183 198 185 173 165 166 164 164 167 170 168 166 166 163 162 165 164 166 171 174 169 170 170 173 164 155 153 150 151 159 162 146 142 142 147 150 144 139 136 138 134 128 121 117 113 104 112 119 117 119 121 123 122 127 129 127 123 120 117 114 112 107 98 98 96 94 101 122 125 124 119 118 116 113 117 121 118 108 103 103 102 101 94 90
171 184 191 191 177 166 163 164 167 167 169 167 164 167 167 164 165 165 169 175 174 169 174 175 176 166 159 159 158 163 162 161 154 149 147 151 152 149 144 145 146 140 137 131 126 123 123 125 127 123 123 127 124 121 126 129 130 130 126 125 120 118 101 102 99 94 89 101 122 123 123 122 124 123 117 121 118 112 110 108 103 104 104 99 93
161 173 190 206 182 172 165 164 168 170 169 169 169 171 167 166 169 172 174 176 174 177 172 174 170 167 159 162 165 167 166 166 163 158 154 151 159 155 148 146 143 143 132 133 130 129 125 125 125 126 131 137 132 132 130 132 133 134 134 132 126 123 101 102 101 94 95 107 115 127 127 133 129 122 124 118 115 112 105 103 110 115 110 103 101
179 174 179 190 201 176 163 168 169 174 172 170 175 172 168 167 172 177 177 173 177 178 173 165 173 168 160 164 166 171 169 169 172 165 154 160 159 157 156 155 148 145 142 141 140 139 133 134 136 141 138 143 139 136 134 136 136 135 137 138 132 129 110 104 106 105 96 105 118 133 134 129 124 128 118 122 122 109 107 109 114 112 105 108 105
198 174 171 185 195 182 170 173 171 173 173 172 176 175 174 174 177 178 174 175 176 171 167 171 172 174 163 169 168 172 176 172 173 167 160 164 161 161 165 161 153 149 153 155 152 146 143 132 136 141 145 151 147 145 140 141 140 139 136 139 140 134 119 121 118 117 116 116 134 136 131 127 139 138 126 122 126 117 111 112 113 107 106 103 101
181 183 177 182 190 198 182 174 170 170 171 177 177 179 178 180 178 174 173 178 170 167 171 170 172 179 168 166 167 174 174 174 174 170 174 170 167 167 174 161 151 155 163 158 139 147 146 148 151 152 152 157 152 150 146 147 145 144 144 144 144 122 124 122 116 118 124 138 131 118 135 141 138 125 125 131 126 127 124 119 117 118 117 108 101
180 190 184 177 183 201 197 177 172 173 177 178 175 177 184 180 176 178 178 174 168 173 173 174 177 178 173 169 171 174 177 176 177 171 177 180 181 178 176 164 161 155 161 153 144 140 146 141 141 146 153 154 153 152 153 147 146 147 145 143 138 129 130 130 127 129 132 129 122 127 140 148 143 133 135 135 131 127 129 124 121 122 121 117 118
180 177 175 175 190 196 198 187 175 176 181 181 180 180 174 175 179 183 178 175 173 174 179 180 177 178 176 179 175 176 182 179 181 174 181 183 186 191 184 177 164 155 157 156 137 129 123 130 133 128 138 148 154 157 156 147 145 148 149 142 140 130 132 126 126 130 142 130 119 119 114 129 135 141 142 136 135 135 133 131 127 127 122 124 120
132 174 173 182 177 193 200 198 183 179 180 180 175 176 181 178 175 177 180 180 178 178 183 177 177 180 178 180 180 181 181 182 182 175 182 183 189 199 196 189 167 156 156 150 140 142 134 142 150 140 155 157 164 164 160 155 147 145 151 146 133 133 135 125 128 135 126 123 122 117 109 91 110 128 144 144 142 138 138 140 135 127 130 119 122
24 345 290 184 175 188 200 206 196 183 179 177 178 179 174 176 176 177 181 185 182 183 182 176 178 184 181 182 184 183 180 180 186 180 181 185 196 202 201 200 172 159 155 160 149 150 145 156 152 153 149 156 162 168 165 161 152 154 150 150 146 133 127 120 118 126 138 130 119 111 101 105 108 103 105 116 146 137 136 137 139 141 133 132 134
147 166 303 279 180 183 225 230 206 186 179 176 175 170 166 168 170 172 169 180 185 187 183 181 178 180 185 186 187 185 181 182 184 184 185 191 196 202 205 197 181 158 157 159 151 151 156 155 171 157 143 154 158 169 169 161 158 151 146 150 133 140 131 118 130 138 124 135 125 114 107 121 113 124 110 100 114 144 145 141 140 147 130 140 137
211 172 181 222 235 185 190 219 215 193 178 172 167 164 160 166 167 167 162 168 188 195 189 185 182 184 187 190 189 187 184 184 185 184 188 190 192 201 203 196 181 169 158 159 164 156 159 162 170 181 160 150 163 163 168 165 159 153 146 148 138 138 134 129 135 131 122 146 138 127 131 132 156 135 93 101 89 114 158 152 151 153 157 158 148
197 186 170 180 224 233 183 193 207 200 184 169 162 158 155 152 149 148 158 176 191 200 201 194 195 192 189 194 188 188 187 186 185 186 190 191 193 198 194 190 182 176 164 162 169 161 164 162 170 186 163 141 160 163 170 162 157 143 139 149 131 127 120 125 137 146 149 167 169 170 171 154 133 97 121 100 86 93 80 157 164 165 168 165 181
190 181 168 155 152 207 223 209 204 194 178 160 154 145 140 142 137 146 162 177 188 199 205 208 202 196 197 194 189 188 187 186 185 185 191 192 193 193 186 189 184 181 169 167 164 166 164 166 165 167 154 155 161 168 166 149 135 128 125 140 113 117 103 111 135 143 185 197 192 179 127 163 119 119 134 126 116 107 104 42 48 46 173 174 193
166 139 148 146 167 193 209 203 191 181 163 148 145 144 153 167 169 161 174 187 191 199 207 213 206 207 201 194 193 189 186 185 187 186 191 195 195 190 186 183 187 179 178 175 168 167 165 162 164 152 137 103 103 142 150 138 114 105 104 97 94 113 122 137 143 171 199 204 209 159 189 144 147 138 149 151 134 138 128 84 78 90 73 174 188
153 143 144 157 152 163 190 180 171 170 166 160 162 162 167 172 174 179 190 192 195 195 206 209 210 212 204 197 194 192 187 185 189 186 194 198 198 189 183 185 184 183 185 188 169 164 163 161 156 152 142 129 114 137 140 134 131 87 65 82 72 74 141 142 165 178 206 217 204 192 181 176 170 178 176 151 163 151 143 124 131 105 126 58 352
206 155 156 167 163 143 178 248 169 177 184 177 169 168 171 172 169 181 181 184 194 199 207 207 211 212 209 201 196 195 191 189 189 191 195 197 198 193 186 188 181 186 191 186 165 162 156 156 146 127 130 140 144 156 151 133 109 152 146 117 39 40 106 147 184 203 203 209 217 201 188 192 193 193 162 175 184 171 162 165 198 200 185 79 233
195 178 157 156 166 167 168 201 241 191 187 175 171 172 161 161 170 169 174 191 201 206 210 214 215 212 209 205 198 196 194 195 191 191 196 199 201 194 192 185 185 183 186 183 162 159 159 156 157 145 124 62 104 158 163 170 134 114 92 94 125 98 317 314 253 221 196 196 194 215 205 207 204 189 180 190 207 197 191 183 200 217 216 221 199
192 184 162 163 173 178 169 178 195 220 201 184 170 157 156 160 160 148 157 187 203 194 200 206 217 217 212 205 200 195 195 197 193 190 196 199 201 200 192 184 188 187 186 179 164 160 157 158 158 154 142 134 140 168 195 37 146 133 131 164 181 124 334 254 218 260 192 194 190 207 202 213 200 179 164 208 212 203 200 188 210 212 224 220 216
189 186 181 179 177 183 180 171 176 191 201 185 178 167 168 162 153 143 136 188 211 195 190 210 214 216 214 206 206 193 194 196 193 192 192 195 197 201 197 189 187 188 185 177 169 165 165 163 162 157 163 147 147 145 191 133 178 53 137 126 96 189 217 216 140 250 132 195 216 203 206 207 205 195 199 218 220 216 196 204 216 221 219 217 216
189 190 191 195 184 180 184 187 174 177 183 186 167 175 178 168 153 135 163 216 214 200 200 208 205 204 205 203 204 198 192 194 194 194 193 190 192 194 196 193 190 185 183 182 165 153 161 165 172 164 163 163 149 156 174 226 217 174 74 114 168 170 167 193 136 238 342 207 253 205 208 206 194 206 207 218 216 215 203 208 199 222 214 213 212
202 189 186 194 192 182 190 183 178 180 173 172 170 168 166 165 170 170 180 206 211 217 215 218 212 209 200 199 203 198 195 194 198 196 194 192 188 188 188 191 190 184 181 174 169 164 164 169 167 169 168 154 153 161 175 180 206 248 217 105 85 163 147 135 189 91 329 313 252 208 218 204 195 199 208 218 219 212 218 211 204 214 219 210 212
204 188 193 195 195 193 192 199 186 178 170 168 174 173 165 166 175 191 189 203 216 223 217 215 212 205 205 201 196 202 197 196 198 200 196 192 186 185 184 185 186 183 178 179 174 163 155 162 170 171 161 166 169 164 174 173 175 200 177 202 58 103 86 62 142 165 155 170 262 331 282 218 205 210 212 217 213 213 213 212 212 209 210 207 205
208 207 203 200 197 197 191 194 213 193 170 167 176 179 166 169 182 187 196 213 219 224 214 213 211 204 207 203 200 202 202 200 199 197 196 193 187 183 181 183 183 180 180 174 170 163 163 159 162 165 170 172 177 169 165 181 188 181 151 178 94 89 77 65 97 83 136 158 257 185 232 353 241 225 218 215 219 208 212 216 221 214 206 206 201
212 213 217 212 210 204 197 194 201 200 188 177 171 170 172 175 189 194 202 206 207 210 206 204 207 204 205 202 200 201 202 201 204 202 195 193 188 180 181 183 182 176 177 173 166 167 168 169 170 171 168 167 176 172 178 176 187 177 185 160 154 111 81 81 89 111 58 128 214 198 199 182 219 247 195 211 212 205 202 209 221 222 210 204 200
203 200 209 212 210 208 207 200 201 203 208 185 169 169 181 184 194 199 205 204 202 198 199 204 203 208 212 204 199 203 198 202 200 205 199 190 190 182 180 181 178 176 173 169 170 169 171 171 172 169 170 171 176 169 169 177 178 175 176 174 186 180 181 185 187 178 160 155 144 238 193 198 212 252 243 210 205 203 198 200 216 218 210 204 198